This is the latest recevied weather packets stored in our database for station/object KM6YFK-13. If no packets are shown the sender has not sent any weather packets the latest 10 day(s).
| Time | Temp. | Humidity | Pressure | Rain* | Wind** | Luminosity | Snow |
|---|---|---|---|---|---|---|---|
| 1777745907 | 26.11° C | 81% | 1010.8 hPa | 0 mm | - | 6 W/m² | - |
| 1777745608 | 27.22° C | 76% | 1010 hPa | 0 mm | - | 39 W/m² | - |
| 1777745307 | 28.33° C | 67% | 1009.8 hPa | 32.26 mm | - | 19 W/m² | - |
| 1777745007 | 28.33° C | 63% | 1009.5 hPa | 0 mm | - | 59 W/m² | - |
| 1777744708 | 28.33° C | 63% | 1009.6 hPa | 0 mm | - | 73 W/m² | - |
| 1777744407 | 28.33° C | 63% | 1009.8 hPa | 0 mm | - | 86 W/m² | - |
| 1777744107 | 28.33° C | 61% | 1010 hPa | 0 mm | - | 111 W/m² | - |
| 1777743807 | 28.33° C | 63% | 1010 hPa | 0 mm | - | 172 W/m² | - |
| 1777743508 | 28.33° C | 63% | 1009.9 hPa | 0 mm | - | 197 W/m² | - |
| 1777743208 | 28.33° C | 62% | 1009.8 hPa | 0 mm | - | 238 W/m² | - |
| 1777742907 | 28.33° C | 62% | 1009.9 hPa | 0 mm | - | 290 W/m² | - |
| 1777742607 | 28.33° C | 62% | 1010.1 hPa | 0 mm | - | 348 W/m² | - |
| 1777742307 | 28.33° C | 62% | 1010.1 hPa | 0 mm | - | 376 W/m² | - |
| 1777742008 | 27.78° C | 62% | 1010.1 hPa | 0 mm | - | 394 W/m² | - |
| 1777741708 | 27.78° C | 63% | 1010.1 hPa | 0 mm | - | 355 W/m² | - |
| 1777741408 | 27.78° C | 62% | 1010.2 hPa | 0 mm | - | 281 W/m² | - |
| 1777741108 | 27.78° C | 62% | 1010.2 hPa | 0 mm | - | 262 W/m² | - |
| 1777740807 | 27.78° C | 64% | 1010.1 hPa | 0 mm | - | 284 W/m² | - |
| 1777740507 | 27.78° C | 62% | 1010.1 hPa | 0 mm | - | 295 W/m² | - |
| 1777740207 | 27.78° C | 64% | 1010.2 hPa | 0 mm | - | 373 W/m² | - |
| 1777739907 | 27.78° C | 62% | 1010.2 hPa | 0 mm | - | 367 W/m² | - |
| 1777739608 | 27.78° C | 61% | 1010.2 hPa | 0 mm | - | 410 W/m² | - |
| 1777739307 | 27.78° C | 61% | 1010.1 hPa | 0 mm | - | 634 W/m² | - |
| 1777739008 | 27.78° C | 63% | 1010.1 hPa | 0 mm | - | 520 W/m² | - |
| 1777738707 | 27.78° C | 61% | 1010.3 hPa | 0 mm | - | 435 W/m² | - |
* Rain latest hour (hover to see other rain measurements)
** Current wind speed in m/s (hover to see current wind gust speed)